Tracking 32577 objects as of 14-Dec-2025
HD Live streaming from Space Station
objects crossing your sky now

STARLINK-2540

Track STARLINK-2540 now!
10-day predictions
STARLINK-2540 is classified as:


NORAD ID: 48290
Int'l Code: 2021-036Q
Perigee: 333.1 km
Apogee: 341.5 km
Inclination: 53.1 °
Period: 91.1 minutes
Semi major axis: 6708 km
RCS: Unknown
Launch date: April 29, 2021
Source: United States (US)
Launch site: AIR FORCE EASTERN TEST RANGE (AFETR)
Your satellite tracking list
Your tracking list is empty




NASA's NSSDC Master Catalog

Two Line Element Set (TLE):
1 48290U 21036Q   25347.66679398  .00384075  00000-0  19296-2 0  9996
2 48290  53.0502  92.3654 0006215 349.5789 334.4010 15.80103075  5929
Source of the keplerian elements: AFSPC